Lid_Strength_Index
4 4 4 4 4 4 4 4 4 4 4 4 5 5 5 5 5 6 9 7 6 -1 -1 4 3 3 3 4 4 4 11 13 12 11 9 9 8 5 5 6 5 5 5 4 2
3 4 4 4 4 4 4 4 4 5 5 5 5 5 5 5 6 7 3 -0 -1 -2 5 4 4 3 6 5 6 8 11 11 8 8 9 7 7 7 7 7 7 6 4 3 3
5 5 4 4 4 4 4 4 4 5 5 5 5 5 5 5 6 5 -2 -1 -2 -1 3 2 2 4 6 6 6 8 11 8 7 7 6 7 8 6 8 9 7 7 6 4 4
4 5 5 5 4 4 4 4 4 5 5 5 5 5 4 5 10 6 -2 -3 -2 4 3 3 4 6 7 7 6 9 7 7 7 6 7 8 8 7 7 7 5 5 4 4 5
4 4 4 5 4 5 4 4 4 4 5 5 5 5 6 10 8 0 -2 -2 3 4 3 4 5 6 8 7 7 9 8 7 6 6 6 6 7 7 7 5 4 4 4 5 4
4 4 5 5 5 5 5 5 5 5 5 5 5 5 9 13 5 2 4 5 6 4 3 3 5 5 6 8 9 7 7 7 6 7 6 7 7 7 6 5 5 5 5 5 4
4 5 5 5 5 5 5 5 5 5 4 5 5 5 9 11 6 5 4 7 5 4 4 3 3 5 6 8 6 7 9 8 8 7 8 6 9 8 6 5 6 6 5 5 4
5 5 5 5 5 5 6 6 5 5 4 4 4 6 12 8 5 4 5 5 3 4 2 2 2 5 6 5 6 9 9 12 8 7 7 7 11 8 6 6 7 6 5 5 4
5 5 5 5 5 6 6 6 5 4 5 4 7 10 11 6 7 6 4 5 4 4 3 1 3 6 6 9 11 10 13 12 10 7 7 8 10 7 6 6 7 6 6 5 5
5 5 5 5 5 6 6 6 5 4 5 5 6 12 10 9 8 5 4 4 6 7 7 7 7 9 9 10 15 13 13 11 11 9 8 9 9 8 7 7 7 6 6 5 5
4 4 5 5 5 6 7 11 10 11 9 12 11 11 9 9 8 8 4 5 6 7 10 8 10 12 10 9 9 10 11 12 10 8 9 10 10 8 7 7 7 7 6 6 5
4 4 4 4 5 6 9 12 11 11 14 10 9 10 9 10 11 10 5 8 8 10 9 10 11 8 8 8 9 10 12 12 9 8 9 10 9 9 7 7 7 7 6 6 5
4 4 4 5 5 9 10 10 10 11 14 11 10 11 11 10 11 11 7 8 9 10 10 11 9 7 9 11 11 11 12 11 11 10 10 11 11 10 7 7 6 6 5 5 5
5 5 5 6 9 10 10 9 9 11 16 14 12 11 10 10 12 9 7 7 9 10 9 11 9 9 11 11 11 12 9 9 10 12 13 12 15 13 10 8 8 7 6 5 5
5 5 6 6 10 9 9 9 10 11 18 11 13 10 11 10 11 10 7 8 9 9 10 11 11 11 12 11 10 11 10 11 11 13 14 13 14 13 11 11 9 7 6 5 4
5 6 6 8 11 8 7 9 9 14 17 12 12 12 12 12 11 10 9 8 8 9 10 10 10 10 11 9 9 9 11 13 13 14 16 14 14 13 12 10 9 7 6 5 5
6 6 7 7 10 9 9 9 14 17 11 12 14 13 13 13 12 11 11 12 12 14 15 11 11 11 10 12 11 11 15 16 16 16 15 15 14 12 10 9 8 7 6 7 5
7 7 8 7 8 9 9 11 16 13 11 10 11 13 12 11 12 12 12 13 13 12 14 14 14 12 10 11 12 14 14 16 18 17 15 15 15 12 9 7 7 7 7 5 6
7 10 10 8 7 9 10 16 15 13 10 12 12 13 14 12 12 12 12 13 12 10 13 14 13 10 9 10 11 14 15 13 16 18 16 14 13 11 8 8 8 8 6 6 5
11 10 9 7 7 11 13 15 14 11 11 12 14 13 14 13 13 14 13 11 11 9 10 11 13 11 9 9 10 12 12 15 16 17 18 16 16 14 11 10 9 9 8 7 6
11 10 8 8 11 12 15 16 13 10 11 13 14 14 13 12 13 14 13 11 10 12 10 12 12 11 11 12 12 13 15 16 15 16 17 18 15 11 10 10 10 9 8 7 6
13 11 7 11 14 17 16 14 11 12 12 12 13 13 13 12 13 13 13 11 10 10 11 12 13 14 12 11 11 13 14 15 15 16 17 17 15 10 9 9 8 8 7 6 6
13 12 6 10 14 15 14 12 12 11 12 13 13 12 12 13 14 12 11 10 9 10 11 12 15 16 13 13 12 12 13 15 15 16 16 15 14 9 8 8 8 8 7 6 6
11 10 9 11 13 13 12 12 11 9 10 11 13 13 13 14 14 13 12 10 8 8 5 8 15 14 15 14 13 13 12 12 13 15 15 15 12 11 10 9 8 8 7 7 6
9 11 11 12 12 11 10 10 10 10 9 11 13 13 13 15 15 14 12 10 9 6 10 11 13 14 13 13 12 12 11 11 12 13 13 13 12 11 9 9 8 7 6 6 6
10 10 10 12 11 10 11 11 10 9 9 10 11 9 12 14 13 13 10 11 11 10 11 12 14 13 14 11 12 12 10 10 10 11 11 11 13 9 8 7 7 7 7 7 6
11 10 10 12 11 11 11 10 9 9 9 8 9 9 12 11 10 10 10 9 9 10 11 12 14 15 15 13 12 14 11 11 12 11 11 13 11 8 9 8 9 8 7 7 6